Location: ???? ?????????
(44.3677°N, 135.2344°E)
Time: 14:15:46
(UTC+00:00)

NOSS 3-2 (C) - Pass Details

Date: 19 May 2025
Orbit: 686 x 1523 km, 63.4° (Epoch: 04 June)

Event Time Altitude Azimuth Distance (km) Brightness Sun altitude
Rises 17:40:09 0° 319° (NW) 3,977 6.8 -15.5°
Reaches altitude 10° 17:42:44 10° 315° (NW) 3,126 6.2 -15.2°
Maximum altitude 17:50:09 53° 241° (WSW) 1,619 4.3 -14.4°
Drops below altitude 10° 17:58:45 10° 168° (SSE) 3,609 6.1 -13.3°
Sets 18:01:57 0° 164° (SSE) 4,631 6.7 -12.9°
